[[{"header":{"parameterUnit":"m.s-1","parameterCategory":1,"la1":30.2992,"la2":30.254,"lo1":-89.0895,"lo2":-89.0443,"dy":0.0025,"dx":0.0025,"nx":19,"ny":19,"refTime":"2026-05-20T21:00:00:Z","depth":0,"parameterNumber":2,"parameterNumberName":"U-component_of_WINDS"},"data":[0,0,0,-3.0456,-3.0459,-3.0622,-3.0622,-3.0825,-3.0827,0,0,0,0,0,0,0,0,0,0,0,-3.0404,-3.0405,-3.0455,-3.0459,-3.0622,-3.0622,-3.0825,-3.0827,0,0,0,0,0,0,0,0,0,0,0,-3.0403,-3.0405,-3.0407,-3.046,-3.0621,-3.0622,-3.0824,-3.0703,0,0,0,0,0,0,0,0,0,0,-3.0547,-3.0496,-3.0405,-3.0407,-3.0461,-3.0621,-3.0622,-3.0698,-3.0711,-3.0749,0,-3.0782,0,-3.0807,-3.084,-3.0841,0,0,0,-3.0462,-3.0484,-3.0531,-3.0407,-3.0462,-3.0621,-3.0549,-3.0705,-3.072,-3.0767,-3.0785,-3.0792,-3.0811,-3.0841,-3.0842,-3.1052,-3.1053,0,0,-3.0453,-3.0431,-3.0521,-3.0541,-3.0515,-3.0544,-3.0554,-3.0714,-3.0733,-3.0785,-3.0797,-3.0814,-3.0842,-3.0844,-3.1051,-3.1052,0,0,0,-3.0425,-3.0425,-3.0468,-3.0532,-3.0562,-3.0549,-3.056,-3.0726,-3.0741,-3.0799,-3.0816,-3.0844,-3.0846,-3.105,-3.1052,-3.1072,0,0,0,-3.042,-3.0409,-3.0464,-3.0453,-3.0559,-3.0646,-3.0568,-3.073,-3.0749,-3.0815,-3.0844,-3.0848,-3.1049,-3.1051,-3.1069,-3.1085,0,0,0,-3.0395,-3.0406,-3.0428,-3.0451,-3.052,-3.0644,-3.0669,-3.0735,-3.076,-3.0841,-3.0848,-3.1049,-3.1051,-3.1067,-3.1081,-3.1133,0,0,0,-3.0361,-3.0445,-3.0428,-3.0529,-3.0519,-3.0656,-3.0668,-3.0771,-3.0843,-3.0845,-3.1049,-3.1051,-3.1066,-3.1079,-3.113,-3.1171,-3.1187,0,0,-3.0454,-3.0455,-3.0516,-3.0506,-3.064,-3.0632,-3.077,-3.0857,-3.0885,-3.0995,-3.1,-3.107,-3.1081,-3.1132,-3.1284,-3.1296,0,0,0,-3.0538,-3.0581,-3.0621,-3.0689,-3.0758,-3.0817,-3.0885,-3.0918,-3.1012,-3.0937,-3.1105,-3.1112,-3.1143,-3.1163,-3.1174,-3.1201,-3.106,-3.106,-3.106,-3.0638,-3.0669,-3.0771,-3.0822,-3.0888,-3.0958,-3.1014,-3.1069,-3.1082,-3.1121,-3.1153,-3.1241,-3.1265,-3.1272,-3.1301,-3.1179,-3.1179,-3.1179,-3.1179,-3.0776,-3.0842,-3.0857,-3.0961,-3.0994,-3.1082,-3.1153,-3.1159,-3.1246,-3.1219,-3.1248,-3.1215,-3.1285,-3.1311,-3.1181,-3.1181,-3.118,-3.118,-3.118,-3.0844,-3.088,-3.0919,-3.102,-3.1095,-3.1144,-3.1227,-3.1254,-3.1281,-3.131,-3.1346,-3.1346,-3.1348,-3.1325,-3.1326,-3.1326,-3.1326,-3.1327,-3.1327,-3.0898,-3.094,-3.1007,-3.1087,-3.1134,-3.12,-3.1272,-3.1319,-3.1378,-3.1392,-3.1392,-3.14,-3.1286,-3.1256,-3.1332,-3.1331,-3.133,-3.133,-3.1329,-3.1024,-3.1,-3.1102,-3.1149,-3.1246,-3.1318,-3.1353,-3.1447,-3.149,-3.153,-3.1533,-3.1445,-3.1447,-3.1439,-3.1414,-3.1526,-3.1526,-3.1526,-3.1526,-3.1079,-3.1084,-3.1194,-3.1268,-3.1344,-3.1385,-3.15,-3.1557,-3.1612,-3.1641,-3.163,-3.16,-3.159,-3.1598,-3.1587,-3.1564,-3.1712,-3.1712,-3.1712,-3.1158,-3.1171,-3.1263,-3.1316,-3.1394,-3.1461,-3.1569,-3.1653,-3.1712,-3.172,-3.1664,-3.1656,-3.1609,-3.1592,-3.1596,-3.1578,-3.1537,0,0]},{"header":{"parameterUnit":"m.s-1","parameterCategory":1,"la1":30.2992,"la2":30.254,"lo1":-89.0895,"lo2":-89.0443,"dy":0.0025,"dx":0.0025,"nx":19,"ny":19,"refTime":"2026-05-20T21:00:00:Z","depth":0,"parameterNumber":3,"parameterNumberName":"V-component_of_WINDS"},"data":[0,0,0,4.2131,4.2133,4.2207,4.2207,4.231,4.2311,0,0,0,0,0,0,0,0,0,0,0,4.2114,4.2115,4.2131,4.2133,4.2207,4.2207,4.231,4.2311,0,0,0,0,0,0,0,0,0,0,0,4.2114,4.2115,4.2116,4.2133,4.2207,4.2207,4.2309,4.225,0,0,0,0,0,0,0,0,0,0,4.2177,4.2167,4.2115,4.2116,4.2133,4.2207,4.2207,4.2247,4.2254,4.228,0,4.2305,0,4.231,4.2318,4.2319,0,0,0,4.2128,4.2162,4.2177,4.2116,4.2134,4.2207,4.2172,4.2251,4.2259,4.2289,4.2307,4.231,4.2312,4.2319,4.232,4.2488,4.2489,0,0,4.2124,4.213,4.2172,4.2182,4.2172,4.217,4.2174,4.2255,4.2275,4.2307,4.2312,4.2313,4.232,4.2321,4.2487,4.2488,0,0,0,4.2115,4.2128,4.2141,4.2178,4.2191,4.2172,4.2177,4.2271,4.2275,4.2313,4.2315,4.232,4.2322,4.2486,4.2487,4.2544,0,0,0,4.2113,4.2123,4.2139,4.2144,4.219,4.2232,4.2191,4.2269,4.2278,4.2314,4.2321,4.2323,4.2485,4.2487,4.254,4.257,0,0,0,4.2108,4.2122,4.2135,4.2144,4.2176,4.2231,4.2239,4.2271,4.2279,4.2319,4.2323,4.2484,4.2486,4.2537,4.2564,4.2617,0,0,0,4.2103,4.2182,4.2136,4.2224,4.2176,4.2266,4.2238,4.2305,4.2345,4.2321,4.2485,4.2487,4.2536,4.256,4.2613,4.2663,4.2684,0,0,4.2206,4.2195,4.2247,4.2207,4.2308,4.2254,4.2362,4.2392,4.2389,4.2455,4.2459,4.2541,4.2563,4.2616,4.2801,4.2818,0,0,0,4.2282,4.2319,4.2344,4.2384,4.2411,4.2436,4.2449,4.2461,4.2517,4.2425,4.2574,4.2587,4.2618,4.2641,4.2656,4.2682,4.2498,4.2498,4.2498,4.2436,4.243,4.2515,4.2519,4.2558,4.2573,4.2604,4.2622,4.2602,4.2638,4.2657,4.2771,4.2798,4.2809,4.2837,4.2683,4.2683,4.2683,4.2684,4.2587,4.2639,4.2614,4.2688,4.2682,4.2743,4.2761,4.2746,4.2802,4.2755,4.2781,4.2731,4.2828,4.2852,4.2688,4.2687,4.2687,4.2686,4.2686,4.2687,4.2711,4.2726,4.2785,4.2831,4.2831,4.2888,4.2879,4.287,4.2897,4.2917,4.2916,4.2915,4.2907,4.2908,4.2908,4.2908,4.2909,4.2909,4.2786,4.28,4.285,4.2887,4.2912,4.2945,4.2962,4.2986,4.3012,4.3001,4.3001,4.2979,4.2839,4.2804,4.2915,4.2914,4.2913,4.2913,4.2912,4.2942,4.2906,4.2982,4.3008,4.3052,4.3099,4.3088,4.3139,4.3158,4.3187,4.316,4.3058,4.3045,4.3033,4.3004,4.316,4.316,4.316,4.316,4.3027,4.3021,4.3098,4.3141,4.3181,4.3179,4.3266,4.3281,4.3289,4.3301,4.3277,4.3238,4.3227,4.3221,4.3205,4.3178,4.3375,4.3375,4.3375,4.3123,4.3121,4.3196,4.3206,4.324,4.3269,4.3351,4.3401,4.3403,4.3384,4.331,4.3301,4.3238,4.3218,4.3197,4.3173,4.3123,0,0]}]]